Weather Service Report


000 
ASUS41 KBOX 211510
RWRBOX

REGIONAL WEATHER ROUNDUP
NATIONAL WEATHER SERVICE TAUNTON MA
1000 AM EST TUE FEB 21 2017

NOTE:  "FAIR" INDICATES FEW OR NO CLOUDS BELOW 12,000 FEET WITH NO 
SIGNIFICANT WEATHER AND/OR OBSTRUCTIONS TO VISIBILITY.

MAZALL-211600-
EASTERN MASSACHUSETTS
  
CITY           SKY/WX    TMP DP  RH WIND       PRES   REMARKS
BOSTON         MOSUNNY   38  23  55 E8        30.38F                  
BEVERLY        SUNNY     36  22  56 E6        30.37F WCI  31          
LAWRENCE       SUNNY     38  19  46 E6        30.39F                  
BEDFORD        SUNNY     35  15  44 CALM      30.35F                  
BLUE HILL      NOT AVBL                                               
NORWOOD        SUNNY     38  20  48 CALM      30.37F                  
MARSHFIELD     SUNNY     41  28  60 VRB3      30.37F                  
PLYMOUTH       SUNNY     39  25  57 NE8       30.37F                  
TAUNTON        SUNNY     40  23  50 VRB3      30.37F                  
NEW BEDFORD    SUNNY     41  24  51 E7        30.37F                  
$$

MAZALL-211600-
CAPE COD AND THE ISLANDS
  
CITY           SKY/WX    TMP DP  RH WIND       PRES   REMARKS
FALMOUTH       SUNNY     39  27  60 MISG      30.38S                  
HYANNIS        SUNNY     41  27  57 NE12      30.35F                  
CHATHAM        SUNNY     41  25  53 VRB6      30.38S                  
PROVINCETOWN   SUNNY     39  25  57 NE9       30.39S                  
NANTUCKET      SUNNY     41  28  60 N14       30.37S                  
MARTHAS VNYRD  SUNNY     42  27  55 VRB7      30.37S                  
$$
 
MAZALL-211600-
CENTRAL AND WESTERN MASSACHUSETTS
  
CITY           SKY/WX    TMP DP  RH WIND       PRES   REMARKS
WORCESTER      SUNNY     34   9  35 CALM      30.32F                  
FITCHBURG      SUNNY     37  13  37 CALM      30.37F                  
ORANGE         SUNNY     30  16  56 CALM      30.35F                  
SPRINGFIELD    PTSUNNY   36   5  27 CALM      30.37S                  
WESTFIELD      PTSUNNY   32  15  49 CALM      30.38S                  
NORTH ADAMS    CLOUDY    30  13  49 CALM      30.33F                  
PITTSFIELD     CLOUDY    32  15  49 CALM      30.30F                  
$$
 
RIZALL-211600-
RHODE ISLAND
  
CITY           SKY/WX    TMP DP  RH WIND       PRES   REMARKS
PROVIDENCE     PTSUNNY   39  20  46 NE6       30.37F                  
NEWPORT        SUNNY     40  23  50 NE6       30.36F                  
BLOCK ISLAND   SUNNY     38  28  67 E8        30.37F                  
SMITHFIELD     SUNNY     37  19  48 VRB3      30.35F                  
WESTERLY       SUNNY     41  16  36 E5        30.37F                  
$$
 
CTZALL-211600-
CONNECTICUT
  
CITY           SKY/WX    TMP DP  RH WIND       PRES   REMARKS
BRADLEY INTL   PTSUNNY   34  15  46 N3        30.38F                  
HARTFORD       MOSUNNY   34  17  50 CALM      30.40S                  
BRIDGEPORT     MOSUNNY   39  15  37 E5        30.39F                  
DANBURY        MOSUNNY   37  16  42 SE7       30.37F WCI  32          
GROTON         SUNNY     41  21  44 VRB3      30.37F                  
NEW HAVEN      MOSUNNY   39  17  41 CALM      30.38F                  
CHESTER          N/A     39  16  38 CALM      30.37S                  
MERIDEN        MOSUNNY   37  15  40 CALM      30.39F                  
WILLIMANTIC    SUNNY     36  16  44 CALM      30.38F                  
OXFORD         MOSUNNY   37  16  41 S7        30.37S                  
$$

MEZ002-015-021-024-NHZ003-005-008-011-012-014-VTZ005-008-211600-
NORTHERN NEW ENGLAND
  
CITY           SKY/WX    TMP DP  RH WIND       PRES   REMARKS
PORTLAND ME    MOSUNNY   32  13  45 NE3       30.38F                  
BANGOR ME      SUNNY     27   9  46 N7        30.37F WCI  19          
CONCORD NH     SUNNY     32  16  51 CALM      30.36F                  
MANCHESTER NH  MOSUNNY   34  15  46 CALM      30.35F                  
NASHUA NH      SUNNY     33  17  51 CALM      30.37F                  
PORTSMOUTH NH  MOSUNNY   35  15  43 CALM      30.37F                  
JAFFREY NH     SUNNY     35   9  33 CALM      30.32F                  
KEENE NH       SUNNY     28  16  60 CALM      30.35F                  
BURLINGTON VT  PTSUNNY   33  16  49 S10       30.26F WCI  25          
MT. WASHINGTON MOSUNNY   34   0  23 S7          N/A  WCI  28          
$$

NYZ052-076-211600-
EASTERN NEW YORK
  
CITY           SKY/WX    TMP DP  RH WIND       PRES   REMARKS
ALBANY         PTSUNNY   31  17  56 SE6       30.34F WCI  25          
NEW YORK CITY  PTSUNNY   40  22  48 NE8       30.38S                  
$$
 
ANZALL-211600-
MARINE OBSERVATIONS
  
STATION/POSITION TIME  TEMP    WIND        PRES    VSBY  WAVE
                       AIR SEA DIR/SP/G                  HT/PER
                 (UTC) (F)     (DEG/KT/KT) (MB)    (MI)  (FT/S)
BOSTON BUOY      1350   36 42  350/  6/  8 1028.2          3/ 6
BUZZARDS BAY     1400   34      20/  7/  8 1029.3F
NANTUCKET SOUND  1350   37 38  330/  6/  8 1028.5          1/ 7
MASS BAY-STELLWA 1404   38 40   50/  8/ 10 1027.6F         3/ 6
ISLE OF SHOALS   1500   34      30/  5/  7 1028.4F
S OF BLOCK IS    1455      41                N/A           2/ 3
$$

......................KEY.........................
  SKY/WX - SKY CONDITION/PRESENT WEATHER
  TMP    - TEMPERATURE IN FAHRENHEIT
  DWPT   - DEWPOINT IN FAHRENHEIT
  RH     - RELATIVE HUMIDITY IN PERCENT
  WIND   - DIRECTION AND SPEED IN MPH
  PRES   - MEAN SEA LEVEL PRESSURE IN INCHES OF HG
  WCI    - WIND CHILL INDEX
  VSB    - VISIBILITY IN MILES
  HX     - HEAT INDEX
  TC     - TEMPERATURE IN CELSIUS
  VRB    - VARIABLE WIND DIRECTION
  N/A    - NOT AVAILABLE
  

Return to Home page


Western Regional Climate Center, wrcc@dri.edu